Погода в Лазаревском

Россия / Краснодарский край     43°54′30″N   39°20′00″E
темп.,
°C
ветер,
м/с
пор.,
м/с
влажн.,
%
обл.,
%
осадки,
мм/ч
давл.,
гПа
погр.,
м
16 мая, вс
вс1600:00+16ссв11870 0.0 101111
03:00+17с228978 0.0 101016
06:00+17всв2290100 0.0 100727
09:00+20юз0179100 0.0 1007147
12:00+21ююз1174100 0.0 1005384
15:00+20юз127838 0.0 1004216
18:00+21сз11818 0.0 100225
21:00+20ю33825 0.0 100321
17 мая, пн
пн1700:00+16св119780 0.0 100575
03:00+17юв239198 0.0 100432
06:00+15ююв239331 0.0 1008129
09:00+17ююз347795 0.0 1008246
12:00+17юз4578100 0.1 1010426
15:00+16з328862 0.1 1010287
18:00+15юв128587 0.0 1011191
21:00+15вюв239293 0.0 1013181
18 мая, вт
вт1800:00+15юв119082 0.0 101231
03:00+15вюв239198 0.0 1012121
06:00+15вюв238737 0.0 101388
09:00+17ююз458257 0.0 1013365
12:00+17ю678218 0.0 1013502
15:00+17ю458115 0.0 1012342
18:00+17ююв128356 0.0 1012116
21:00+16в338547 0.0 101236
19 мая, ср
ср1900:00+15з2289100 0.0 101429
03:00+15ю129482 1.4 1015100
06:00+15ю229234 1.1 1016108
09:00+15юз239145 1.8 1018337
12:00+17ююз45790 0.4 1019535
15:00+16юз24745 0.4 1019440
18:00+15ссз11780 0.0 1018160
21:00+16ссв33780 0.0 101734
20 мая, чт
чт2000:00+15св44760 0.0 101550
03:00+15св45650 0.0 101346
06:00+16св55530 0.0 101246
09:00+22св224513 0.0 1010123
12:00+24сз113963 0.0 1008314
15:00+24зсз1146100 0.0 1007158
18:00+25ссв33570 0.0 100424
21:00+21св54583 0.0 100520